Time,TemperatureF,DewpointF,PressureIn,WindDirection,WindDirectionDegrees,WindSpeedMPH,WindSpeedGustMPH,Humidity,HourlyPrecipIn,Conditions,Clouds,dailyrainin,SoftwareType,DateUTC
2013-05-22 00:00:00,65.8,25.3,29.85,South,173,0.0,0.0,21,0.00,,---,0.00,VWS V12.07,2013-05-22 07:00:00,
2013-05-22 00:02:00,65.6,25.5,29.85,South,173,0.0,0.0,22,0.00,,---,0.00,VWS V12.07,2013-05-22 07:02:00,
2013-05-22 00:07:00,65.4,25.7,29.85,South,173,0.0,0.0,22,0.00,,---,0.00,VWS V12.07,2013-05-22 07:07:00,
2013-05-22 00:12:00,65.6,25.6,29.85,South,173,0.0,0.0,22,0.00,,---,0.00,VWS V12.07,2013-05-22 07:12:00,
2013-05-22 00:17:00,65.7,25.3,29.85,South,173,0.0,0.0,22,0.00,,---,0.00,VWS V12.07,2013-05-22 07:17:00,
2013-05-22 00:22:00,66.0,25.3,29.85,South,173,0.0,0.0,21,0.00,,---,0.00,VWS V12.07,2013-05-22 07:22:00,
2013-05-22 00:27:00,66.2,25.3,29.85,South,173,0.0,0.0,21,0.00,,---,0.00,VWS V12.07,2013-05-22 07:27:00,
2013-05-22 00:30:00,66.2,25.1,29.85,South,173,0.0,0.0,21,0.00,,---,0.00,VWS V12.07,2013-05-22 07:30:00,
2013-05-22 00:32:00,66.3,25.0,29.85,South,173,0.0,0.0,21,0.00,,---,0.00,VWS V12.07,2013-05-22 07:32:00,
2013-05-22 00:37:00,66.2,25.0,29.85,South,173,0.0,0.0,21,0.00,,---,0.00,VWS V12.07,2013-05-22 07:37:00,
2013-05-22 00:42:00,66.0,25.4,29.85,South,173,0.0,0.0,21,0.00,,---,0.00,VWS V12.07,2013-05-22 07:42:00,
2013-05-22 00:47:00,65.3,25.3,29.85,South,173,0.0,2.8,22,0.00,,---,0.00,VWS V12.07,2013-05-22 07:47:00,
2013-05-22 00:52:00,64.7,25.3,29.84,South,173,0.0,2.8,22,0.00,,---,0.00,VWS V12.07,2013-05-22 07:52:00,
2013-05-22 00:57:00,64.2,25.1,29.85,South,173,0.0,2.8,22,0.00,,---,0.00,VWS V12.07,2013-05-22 07:57:00,
2013-05-22 01:00:00,64.2,25.1,29.85,South,173,0.0,2.8,22,0.00,,---,0.00,VWS V12.07,2013-05-22 08:00:00,
2013-05-22 01:02:00,64.1,25.4,29.84,South,173,0.0,2.8,23,0.00,,---,0.00,VWS V12.07,2013-05-22 08:02:00,
2013-05-22 01:07:00,63.9,25.6,29.85,South,173,0.0,2.8,23,0.00,,---,0.00,VWS V12.07,2013-05-22 08:07:00,
2013-05-22 01:12:00,63.6,25.9,29.84,South,173,0.0,2.8,24,0.00,,---,0.00,VWS V12.07,2013-05-22 08:12:00,
2013-05-22 01:17:00,62.9,25.9,29.85,South,173,0.0,2.8,24,0.00,,---,0.00,VWS V12.07,2013-05-22 08:17:00,
2013-05-22 01:22:00,62.5,26.1,29.84,South,173,0.0,2.8,25,0.00,,---,0.00,VWS V12.07,2013-05-22 08:22:00,
2013-05-22 01:27:00,61.8,26.1,29.84,South,173,0.0,2.8,26,0.00,,---,0.00,VWS V12.07,2013-05-22 08:27:00,
2013-05-22 01:30:00,61.7,26.0,29.84,South,173,0.0,0.0,26,0.00,,---,0.00,VWS V12.07,2013-05-22 08:30:00,
2013-05-22 01:32:00,61.5,26.0,29.84,South,173,0.0,2.8,26,0.00,,---,0.00,VWS V12.07,2013-05-22 08:32:00,
2013-05-22 01:37:00,61.5,26.0,29.84,South,173,0.0,2.8,26,0.00,,---,0.00,VWS V12.07,2013-05-22 08:37:00,
2013-05-22 01:42:00,61.3,26.3,29.84,South,173,0.0,2.8,26,0.00,,---,0.00,VWS V12.07,2013-05-22 08:42:00,
2013-05-22 01:47:00,61.0,26.4,29.84,South,173,0.0,2.8,27,0.00,,---,0.00,VWS V12.07,2013-05-22 08:47:00,
2013-05-22 01:52:00,60.8,26.6,29.84,South,173,0.0,2.8,27,0.00,,---,0.00,VWS V12.07,2013-05-22 08:52:00,
2013-05-22 01:57:00,60.5,26.4,29.84,South,173,0.0,0.0,27,0.00,,---,0.00,VWS V12.07,2013-05-22 08:57:00,
2013-05-22 02:00:00,60.4,26.5,29.84,South,173,0.0,0.0,27,0.00,,---,0.00,VWS V12.07,2013-05-22 09:00:00,
2013-05-22 02:02:00,60.1,27.1,29.84,South,173,0.0,0.0,28,0.00,,---,0.00,VWS V12.07,2013-05-22 09:02:00,
2013-05-22 02:07:00,59.6,27.5,29.84,South,173,0.0,0.0,29,0.00,,---,0.00,VWS V12.07,2013-05-22 09:07:00,
2013-05-22 02:12:00,59.3,27.7,29.84,South,173,0.0,0.0,30,0.00,,---,0.00,VWS V12.07,2013-05-22 09:12:00,
2013-05-22 02:17:00,59.0,28.0,29.84,South,173,0.0,0.0,30,0.00,,---,0.00,VWS V12.07,2013-05-22 09:17:00,
2013-05-22 02:22:00,58.9,28.2,29.84,South,173,0.0,0.0,31,0.00,,---,0.00,VWS V12.07,2013-05-22 09:22:00,
2013-05-22 02:27:00,58.7,27.9,29.84,South,173,0.0,0.0,31,0.00,,---,0.00,VWS V12.07,2013-05-22 09:27:00,
2013-05-22 02:30:00,58.7,27.9,29.84,South,173,0.0,0.0,31,0.00,,---,0.00,VWS V12.07,2013-05-22 09:30:00,
2013-05-22 02:32:00,58.5,27.5,29.84,South,173,0.0,0.0,30,0.00,,---,0.00,VWS V12.07,2013-05-22 09:32:00,
2013-05-22 02:37:00,58.7,27.5,29.84,South,173,0.0,0.0,30,0.00,,---,0.00,VWS V12.07,2013-05-22 09:37:00,
2013-05-22 02:42:00,58.7,27.2,29.84,South,173,0.0,0.0,30,0.00,,---,0.00,VWS V12.07,2013-05-22 09:42:00,
2013-05-22 02:47:00,58.7,27.2,29.84,South,173,0.0,0.0,30,0.00,,---,0.00,VWS V12.07,2013-05-22 09:47:00,
2013-05-22 02:52:00,58.7,27.2,29.84,South,173,0.0,0.0,30,0.00,,---,0.00,VWS V12.07,2013-05-22 09:52:00,
2013-05-22 02:57:00,58.6,27.3,29.84,South,173,0.0,0.0,30,0.00,,---,0.00,VWS V12.07,2013-05-22 09:57:00,
2013-05-22 03:00:00,58.4,27.0,29.84,South,173,0.0,0.0,30,0.00,,---,0.00,VWS V12.07,2013-05-22 10:00:00,
2013-05-22 03:02:00,58.3,27.0,29.84,South,173,0.0,0.0,30,0.00,,---,0.00,VWS V12.07,2013-05-22 10:02:00,
2013-05-22 03:07:00,58.2,26.5,29.84,South,173,0.0,0.0,29,0.00,,---,0.00,VWS V12.07,2013-05-22 10:07:00,
2013-05-22 03:12:00,58.3,26.4,29.84,South,173,0.0,0.0,29,0.00,,---,0.00,VWS V12.07,2013-05-22 10:12:00,
2013-05-22 03:17:00,58.2,26.3,29.84,South,173,0.0,0.0,29,0.00,,---,0.00,VWS V12.07,2013-05-22 10:17:00,
2013-05-22 03:22:00,58.2,26.7,29.84,South,173,0.0,0.0,30,0.00,,---,0.00,VWS V12.07,2013-05-22 10:22:00,
2013-05-22 03:27:00,57.9,26.7,29.84,South,173,0.0,0.0,30,0.00,,---,0.00,VWS V12.07,2013-05-22 10:27:00,
2013-05-22 03:30:00,57.9,26.8,29.84,South,173,0.0,0.0,30,0.00,,---,0.00,VWS V12.07,2013-05-22 10:30:00,
2013-05-22 03:32:00,57.8,26.9,29.84,South,173,0.0,0.0,30,0.00,,---,0.00,VWS V12.07,2013-05-22 10:32:00,
2013-05-22 03:37:00,57.7,26.9,29.84,South,173,0.0,0.0,30,0.00,,---,0.00,VWS V12.07,2013-05-22 10:37:00,
2013-05-22 03:42:00,57.4,26.5,29.84,South,173,0.0,0.0,30,0.00,,---,0.00,VWS V12.07,2013-05-22 10:42:00,
2013-05-22 03:47:00,57.1,26.3,29.84,South,173,0.0,0.0,30,0.00,,---,0.00,VWS V12.07,2013-05-22 10:47:00,
2013-05-22 03:52:00,57.0,26.4,29.84,South,173,0.0,0.0,31,0.00,,---,0.00,VWS V12.07,2013-05-22 10:52:00,
2013-05-22 03:57:00,57.0,26.5,29.83,South,173,0.0,0.0,31,0.00,,---,0.00,VWS V12.07,2013-05-22 10:57:00,
2013-05-22 04:00:00,56.9,26.4,29.84,South,173,0.0,0.0,31,0.00,,---,0.00,VWS V12.07,2013-05-22 11:00:00,
2013-05-22 04:02:00,56.8,26.4,29.84,South,173,0.0,0.0,31,0.00,,---,0.00,VWS V12.07,2013-05-22 11:02:00,
2013-05-22 04:07:00,56.6,27.0,29.84,South,173,0.0,0.0,32,0.00,,---,0.00,VWS V12.07,2013-05-22 11:07:00,
2013-05-22 04:12:00,56.4,27.2,29.84,South,173,0.0,0.0,32,0.00,,---,0.00,VWS V12.07,2013-05-22 11:12:00,
2013-05-22 04:17:00,56.2,27.4,29.83,South,173,0.0,0.0,33,0.00,,---,0.00,VWS V12.07,2013-05-22 11:17:00,
2013-05-22 04:22:00,55.8,27.5,29.83,South,173,0.0,0.0,34,0.00,,---,0.00,VWS V12.07,2013-05-22 11:22:00,
2013-05-22 04:27:00,55.3,27.2,29.84,South,173,0.0,0.0,34,0.00,,---,0.00,VWS V12.07,2013-05-22 11:27:00,
2013-05-22 04:30:00,55.3,27.2,29.84,South,173,0.0,0.0,34,0.00,,---,0.00,VWS V12.07,2013-05-22 11:30:00,
2013-05-22 04:32:00,55.2,27.3,29.83,South,173,0.0,0.0,34,0.00,,---,0.00,VWS V12.07,2013-05-22 11:32:00,
2013-05-22 04:37:00,54.9,26.7,29.84,South,173,0.0,0.0,34,0.00,,---,0.00,VWS V12.07,2013-05-22 11:37:00,
2013-05-22 04:42:00,54.9,26.7,29.84,South,173,0.0,0.0,34,0.00,,---,0.00,VWS V12.07,2013-05-22 11:42:00,
2013-05-22 04:47:00,54.7,26.7,29.84,South,173,0.0,0.0,34,0.00,,---,0.00,VWS V12.07,2013-05-22 11:47:00,
2013-05-22 04:52:00,54.6,26.8,29.84,South,173,0.0,0.0,34,0.00,,---,0.00,VWS V12.07,2013-05-22 11:52:00,
2013-05-22 04:57:00,54.7,27.1,29.84,South,173,0.0,0.0,34,0.00,,---,0.00,VWS V12.07,2013-05-22 11:57:00,
2013-05-22 05:00:00,54.6,27.1,29.84,South,173,0.0,0.0,34,0.00,,---,0.00,VWS V12.07,2013-05-22 12:00:00,
2013-05-22 05:02:00,54.5,27.0,29.84,South,173,0.0,0.0,34,0.00,,---,0.00,VWS V12.07,2013-05-22 12:02:00,
2013-05-22 05:07:00,54.6,26.7,29.84,South,173,0.0,0.0,34,0.00,,---,0.00,VWS V12.07,2013-05-22 12:07:00,
2013-05-22 05:12:00,54.5,26.7,29.84,South,173,0.0,0.0,34,0.00,,---,0.00,VWS V12.07,2013-05-22 12:12:00,
2013-05-22 05:17:00,54.5,26.7,29.84,South,173,0.0,0.0,34,0.00,,---,0.00,VWS V12.07,2013-05-22 12:17:00,
2013-05-22 05:22:00,54.3,27.1,29.85,South,173,0.0,0.0,35,0.00,,---,0.00,VWS V12.07,2013-05-22 12:22:00,
2013-05-22 05:27:00,54.2,27.2,29.85,South,173,0.0,0.0,35,0.00,,---,0.00,VWS V12.07,2013-05-22 12:27:00,
2013-05-22 05:30:00,54.1,27.2,29.85,South,173,0.0,0.0,35,0.00,,---,0.00,VWS V12.07,2013-05-22 12:30:00,
2013-05-22 05:32:00,54.1,27.1,29.85,South,173,0.0,0.0,35,0.00,,---,0.00,VWS V12.07,2013-05-22 12:32:00,
2013-05-22 05:37:00,54.1,26.9,29.85,South,173,0.0,0.0,35,0.00,,---,0.00,VWS V12.07,2013-05-22 12:37:00,
2013-05-22 05:42:00,53.9,27.0,29.85,South,173,0.0,0.0,35,0.00,,---,0.00,VWS V12.07,2013-05-22 12:42:00,
2013-05-22 05:47:00,53.9,27.6,29.85,South,173,0.0,0.0,36,0.00,,---,0.00,VWS V12.07,2013-05-22 12:47:00,
2013-05-22 05:52:00,54.1,27.7,29.85,South,173,0.0,0.0,36,0.00,,---,0.00,VWS V12.07,2013-05-22 12:52:00,
2013-05-22 05:57:00,54.4,28.7,29.85,South,173,0.0,0.0,37,0.00,,---,0.00,VWS V12.07,2013-05-22 12:57:00,
2013-05-22 06:00:00,54.4,28.7,29.85,South,173,0.0,0.0,37,0.00,,---,0.00,VWS V12.07,2013-05-22 13:00:00,
2013-05-22 06:02:00,55.0,28.4,29.85,South,173,0.0,0.0,36,0.00,,---,0.00,VWS V12.07,2013-05-22 13:02:00,
2013-05-22 06:07:00,55.5,28.7,29.86,South,173,0.0,0.0,36,0.00,,---,0.00,VWS V12.07,2013-05-22 13:07:00,
2013-05-22 06:12:00,55.8,29.6,29.86,South,173,0.0,0.0,36,0.00,,---,0.00,VWS V12.07,2013-05-22 13:12:00,
2013-05-22 06:17:00,56.1,30.3,29.86,South,173,0.0,0.0,37,0.00,,---,0.00,VWS V12.07,2013-05-22 13:17:00,
2013-05-22 06:22:00,56.3,30.2,29.86,South,173,0.0,0.0,37,0.00,,---,0.00,VWS V12.07,2013-05-22 13:22:00,
2013-05-22 06:27:00,56.9,30.6,29.86,South,173,0.0,0.0,36,0.00,,---,0.00,VWS V12.07,2013-05-22 13:27:00,
2013-05-22 06:30:00,57.0,30.6,29.86,South,173,0.0,0.0,36,0.00,,---,0.00,VWS V12.07,2013-05-22 13:30:00,
2013-05-22 06:32:00,57.3,31.2,29.86,South,173,0.0,0.0,37,0.00,,---,0.00,VWS V12.07,2013-05-22 13:32:00,
2013-05-22 06:37:00,58.0,31.6,29.86,South,173,0.0,0.0,36,0.00,,---,0.00,VWS V12.07,2013-05-22 13:37:00,
2013-05-22 06:42:00,58.7,31.5,29.86,South,173,0.0,0.0,36,0.00,,---,0.00,VWS V12.07,2013-05-22 13:42:00,
2013-05-22 06:47:00,59.2,31.5,29.86,South,173,0.0,0.0,35,0.00,,---,0.00,VWS V12.07,2013-05-22 13:47:00,
2013-05-22 06:52:00,59.8,30.4,29.86,South,173,0.0,0.0,33,0.00,,---,0.00,VWS V12.07,2013-05-22 13:52:00,
2013-05-22 06:57:00,60.7,31.1,29.86,South,173,0.0,0.0,32,0.00,,---,0.00,VWS V12.07,2013-05-22 13:57:00,
2013-05-22 07:00:00,60.8,31.1,29.86,South,173,0.0,0.0,32,0.00,,---,0.00,VWS V12.07,2013-05-22 14:00:00,
2013-05-22 07:02:00,61.5,31.1,29.87,South,173,0.0,0.0,32,0.00,,---,0.00,VWS V12.07,2013-05-22 14:02:00,
2013-05-22 07:07:00,62.3,31.9,29.86,South,173,0.0,0.0,32,0.00,,---,0.00,VWS V12.07,2013-05-22 14:07:00,
2013-05-22 07:12:00,63.1,32.2,29.86,South,173,0.0,0.0,31,0.00,,---,0.00,VWS V12.07,2013-05-22 14:12:00,
2013-05-22 07:17:00,63.8,32.0,29.86,South,173,0.0,0.0,30,0.00,,---,0.00,VWS V12.07,2013-05-22 14:17:00,
2013-05-22 07:22:00,64.3,31.4,29.86,South,173,0.0,0.0,29,0.00,,---,0.00,VWS V12.07,2013-05-22 14:22:00,
2013-05-22 07:27:00,65.3,31.6,29.87,South,173,0.0,0.0,28,0.00,,---,0.00,VWS V12.07,2013-05-22 14:27:00,
2013-05-22 07:30:00,65.4,31.6,29.87,South,173,0.0,0.0,28,0.00,,---,0.00,VWS V12.07,2013-05-22 14:30:00,
2013-05-22 07:32:00,66.1,31.0,29.86,South,173,0.0,0.0,27,0.00,,---,0.00,VWS V12.07,2013-05-22 14:32:00,
2013-05-22 07:37:00,66.7,30.0,29.86,South,173,0.0,0.0,25,0.00,,---,0.00,VWS V12.07,2013-05-22 14:37:00,
2013-05-22 07:42:00,67.1,30.9,29.86,South,173,0.0,0.0,26,0.00,,---,0.00,VWS V12.07,2013-05-22 14:42:00,
2013-05-22 07:47:00,68.1,31.0,29.86,South,173,0.0,0.0,25,0.00,,---,0.00,VWS V12.07,2013-05-22 14:47:00,
2013-05-22 07:52:00,68.9,31.5,29.87,South,173,0.0,0.0,25,0.00,,---,0.00,VWS V12.07,2013-05-22 14:52:00,
2013-05-22 07:57:00,69.5,31.2,29.87,South,173,0.0,0.0,24,0.00,,---,0.00,VWS V12.07,2013-05-22 14:57:00,
2013-05-22 08:00:00,69.6,31.1,29.87,South,173,0.0,0.0,24,0.00,,---,0.00,VWS V12.07,2013-05-22 15:00:00,
2013-05-22 08:02:00,70.2,31.9,29.87,South,173,0.0,0.0,24,0.00,,---,0.00,VWS V12.07,2013-05-22 15:02:00,
2013-05-22 08:07:00,70.5,31.7,29.87,South,173,0.0,0.0,24,0.00,,---,0.00,VWS V12.07,2013-05-22 15:07:00,
2013-05-22 08:12:00,70.8,30.2,29.87,South,173,0.0,0.0,22,0.00,,---,0.00,VWS V12.07,2013-05-22 15:12:00,
2013-05-22 08:17:00,71.5,29.4,29.87,South,173,0.0,0.0,21,0.00,,---,0.00,VWS V12.07,2013-05-22 15:17:00,
2013-05-22 08:22:00,72.1,29.0,29.87,South,173,0.0,0.0,20,0.00,,---,0.00,VWS V12.07,2013-05-22 15:22:00,
2013-05-22 08:27:00,72.4,28.9,29.87,NNE,20,0.0,2.7,20,0.00,,---,0.00,VWS V12.07,2013-05-22 15:27:00,
2013-05-22 08:30:00,72.3,28.5,29.87,NNE,20,0.0,2.7,20,0.00,,---,0.00,VWS V12.07,2013-05-22 15:30:00,
2013-05-22 08:32:00,72.8,28.3,29.87,NNE,20,0.0,2.7,19,0.00,,---,0.00,VWS V12.07,2013-05-22 15:32:00,
2013-05-22 08:37:00,73.2,27.5,29.86,NNE,20,0.0,2.7,18,0.00,,---,0.00,VWS V12.07,2013-05-22 15:37:00,
2013-05-22 08:42:00,73.7,27.6,29.86,NNE,20,0.0,2.7,18,0.00,,---,0.00,VWS V12.07,2013-05-22 15:42:00,
2013-05-22 08:47:00,74.3,28.0,29.86,NNE,20,0.0,2.7,18,0.00,,---,0.00,VWS V12.07,2013-05-22 15:47:00,
2013-05-22 08:52:00,75.0,28.1,29.86,NNE,20,0.0,0.0,18,0.00,,---,0.00,VWS V12.07,2013-05-22 15:52:00,
2013-05-22 08:57:00,75.0,27.7,29.86,NNE,20,0.0,0.0,17,0.00,,---,0.00,VWS V12.07,2013-05-22 15:57:00,
2013-05-22 09:00:00,75.2,27.7,29.86,NNE,20,0.0,0.0,17,0.00,,---,0.00,VWS V12.07,2013-05-22 16:00:00,
2013-05-22 09:02:00,75.0,27.4,29.86,NNE,20,0.0,0.0,17,0.00,,---,0.00,VWS V12.07,2013-05-22 16:02:00,
2013-05-22 09:07:00,75.3,28.5,29.85,ESE,108,6.8,6.8,18,0.00,,---,0.00,VWS V12.07,2013-05-22 16:07:00,
2013-05-22 09:12:00,76.0,28.8,29.85,East,91,0.0,6.8,18,0.00,,---,0.00,VWS V12.07,2013-05-22 16:12:00,
2013-05-22 09:17:00,76.5,28.3,29.85,East,91,0.0,6.8,17,0.00,,---,0.00,VWS V12.07,2013-05-22 16:17:00,
2013-05-22 09:22:00,76.9,28.5,29.85,East,91,0.0,6.8,17,0.00,,---,0.00,VWS V12.07,2013-05-22 16:22:00,
2013-05-22 09:27:00,77.3,28.0,29.84,East,91,0.0,6.8,16,0.00,,---,0.00,VWS V12.07,2013-05-22 16:27:00,
2013-05-22 09:30:00,77.5,28.3,29.85,East,91,0.0,6.8,16,0.00,,---,0.00,VWS V12.07,2013-05-22 16:30:00,
2013-05-22 09:32:00,78.0,28.4,29.84,SW,214,0.0,6.8,16,0.00,,---,0.00,VWS V12.07,2013-05-22 16:32:00,
2013-05-22 09:37:00,79.2,28.7,29.85,South,172,0.0,6.8,16,0.00,,---,0.00,VWS V12.07,2013-05-22 16:37:00,
2013-05-22 09:42:00,79.7,29.0,29.84,South,172,0.0,6.8,16,0.00,,---,0.00,VWS V12.07,2013-05-22 16:42:00,
2013-05-22 09:47:00,80.3,29.1,29.84,SSW,205,0.0,7.5,15,0.00,,---,0.00,VWS V12.07,2013-05-22 16:47:00,
2013-05-22 09:52:00,80.8,29.0,29.84,ENE,77,0.0,7.5,15,0.00,,---,0.00,VWS V12.07,2013-05-22 16:52:00,
2013-05-22 09:57:00,81.5,29.6,29.84,SE,128,6.5,9.6,15,0.00,,---,0.00,VWS V12.07,2013-05-22 16:57:00,
2013-05-22 10:00:00,81.9,29.6,29.84,East,100,3.3,9.6,15,0.00,,---,0.00,VWS V12.07,2013-05-22 17:00:00,
2013-05-22 10:02:00,82.3,29.2,29.84,SW,225,0.0,9.6,14,0.00,,---,0.00,VWS V12.07,2013-05-22 17:02:00,
2013-05-22 10:07:00,83.1,29.0,29.84,SE,124,1.5,12.5,14,0.00,,---,0.00,VWS V12.07,2013-05-22 17:07:00,
2013-05-22 10:12:00,83.3,29.0,29.84,South,186,4.6,12.5,14,0.00,,---,0.00,VWS V12.07,2013-05-22 17:12:00,
2013-05-22 10:17:00,84.2,29.4,29.84,SSE,163,7.9,12.5,14,0.00,,---,0.00,VWS V12.07,2013-05-22 17:17:00,
2013-05-22 10:22:00,84.9,28.8,29.84,SSW,212,9.1,15.1,13,0.00,,---,0.00,VWS V12.07,2013-05-22 17:22:00,
2013-05-22 10:27:00,85.1,27.8,29.84,SSW,207,9.3,16.7,12,0.00,,---,0.00,VWS V12.07,2013-05-22 17:27:00,
2013-05-22 10:30:00,85.1,27.8,29.84,South,187,9.0,16.7,12,0.00,,---,0.00,VWS V12.07,2013-05-22 17:30:00,
2013-05-22 10:32:00,84.7,27.7,29.84,SSW,197,4.5,16.7,13,0.00,,---,0.00,VWS V12.07,2013-05-22 17:32:00,
2013-05-22 10:37:00,85.3,27.4,29.84,SE,138,5.5,20.3,12,0.00,,---,0.00,VWS V12.07,2013-05-22 17:37:00,
2013-05-22 10:42:00,85.4,27.9,29.83,South,174,12.3,20.3,12,0.00,,---,0.00,VWS V12.07,2013-05-22 17:42:00,
2013-05-22 10:47:00,85.3,27.6,29.83,South,187,5.5,20.3,12,0.00,,---,0.00,VWS V12.07,2013-05-22 17:47:00,
2013-05-22 10:52:00,85.3,27.6,29.83,SW,225,8.8,20.3,12,0.00,,---,0.00,VWS V12.07,2013-05-22 17:52:00,
2013-05-22 10:57:00,85.5,26.1,29.83,South,173,4.7,20.3,12,0.00,,---,0.00,VWS V12.07,2013-05-22 17:57:00,
2013-05-22 11:00:00,85.8,26.4,29.84,South,191,0.0,20.3,12,0.00,,---,0.00,VWS V12.07,2013-05-22 18:00:00,
2013-05-22 11:02:00,86.0,25.6,29.83,South,179,5.2,20.3,11,0.00,,---,0.00,VWS V12.07,2013-05-22 18:02:00,
2013-05-22 11:07:00,86.2,25.6,29.83,WSW,238,7.0,21.2,11,0.00,,---,0.00,VWS V12.07,2013-05-22 18:07:00,
2013-05-22 11:12:00,86.3,25.9,29.83,South,187,9.3,21.2,11,0.00,,---,0.00,VWS V12.07,2013-05-22 18:12:00,
2013-05-22 11:17:00,86.3,25.9,29.83,South,188,13.7,23.5,11,0.00,,---,0.00,VWS V12.07,2013-05-22 18:17:00,
2013-05-22 11:22:00,86.6,26.1,29.83,SSE,149,7.7,23.5,11,0.00,,---,0.00,VWS V12.07,2013-05-22 18:22:00,
2013-05-22 11:27:00,86.4,25.7,29.83,SSW,204,6.5,23.5,11,0.00,,---,0.00,VWS V12.07,2013-05-22 18:27:00,
2013-05-22 11:30:00,86.6,25.9,29.83,SSE,150,20.1,24.7,11,0.00,,---,0.00,VWS V12.07,2013-05-22 18:30:00,
2013-05-22 11:32:00,86.6,25.2,29.82,SW,231,9.3,24.7,11,0.00,,---,0.00,VWS V12.07,2013-05-22 18:32:00,
2013-05-22 11:37:00,86.8,25.4,29.82,SSE,150,9.0,24.7,11,0.00,,---,0.00,VWS V12.07,2013-05-22 18:37:00,
2013-05-22 11:42:00,87.2,25.7,29.82,SSE,162,14.3,24.7,11,0.00,,---,0.00,VWS V12.07,2013-05-22 18:42:00,
2013-05-22 11:47:00,87.2,24.3,29.82,SSW,204,5.7,24.7,10,0.00,,---,0.00,VWS V12.07,2013-05-22 18:47:00,
2013-05-22 11:52:00,87.0,23.9,29.82,SSW,193,9.3,26.3,10,0.00,,---,0.00,VWS V12.07,2013-05-22 18:52:00,
2013-05-22 11:57:00,86.9,23.6,29.82,SSE,152,5.5,26.3,10,0.00,,---,0.00,VWS V12.07,2013-05-22 18:57:00,
2013-05-22 12:00:00,86.9,23.6,29.82,South,184,21.0,26.3,10,0.00,,---,0.00,VWS V12.07,2013-05-22 19:00:00,
2013-05-22 12:02:00,87.4,24.0,29.82,SSW,204,6.2,26.3,10,0.00,,---,0.00,VWS V12.07,2013-05-22 19:02:00,
2013-05-22 12:07:00,87.5,23.8,29.82,South,184,10.9,26.3,10,0.00,,---,0.00,VWS V12.07,2013-05-22 19:07:00,
2013-05-22 12:12:00,87.9,23.1,29.82,South,186,14.8,26.3,9,0.00,,---,0.00,VWS V12.07,2013-05-22 19:12:00,
2013-05-22 12:17:00,87.2,23.1,29.82,South,180,5.2,26.3,10,0.00,,---,0.00,VWS V12.07,2013-05-22 19:17:00,
2013-05-22 12:22:00,87.3,22.7,29.81,SSW,201,10.8,26.3,9,0.00,,---,0.00,VWS V12.07,2013-05-22 19:22:00,
2013-05-22 12:27:00,87.3,22.2,29.81,SSE,153,9.7,26.3,9,0.00,,---,0.00,VWS V12.07,2013-05-22 19:27:00,
2013-05-22 12:30:00,87.2,22.1,29.81,South,183,12.9,21.7,9,0.00,,---,0.00,VWS V12.07,2013-05-22 19:30:00,
2013-05-22 12:32:00,87.6,23.1,29.81,South,188,5.4,26.3,10,0.00,,---,0.00,VWS V12.07,2013-05-22 19:32:00,
2013-05-22 12:37:00,87.9,22.6,29.81,SSW,204,3.3,26.3,9,0.00,,---,0.00,VWS V12.07,2013-05-22 19:37:00,
2013-05-22 12:42:00,87.9,22.6,29.82,South,187,7.0,26.3,9,0.00,,---,0.00,VWS V12.07,2013-05-22 19:42:00,
2013-05-22 12:47:00,88.0,23.2,29.81,SSW,193,13.3,26.3,9,0.00,,---,0.00,VWS V12.07,2013-05-22 19:47:00,
2013-05-22 12:52:00,88.2,22.6,29.80,SSW,205,11.7,24.5,9,0.00,,---,0.00,VWS V12.07,2013-05-22 19:52:00,
2013-05-22 12:57:00,88.7,22.4,29.81,South,179,11.0,24.5,9,0.00,,---,0.00,VWS V12.07,2013-05-22 19:57:00,
2013-05-22 13:00:00,88.6,22.4,29.81,South,179,10.6,24.5,9,0.00,,---,0.00,VWS V12.07,2013-05-22 20:00:00,
2013-05-22 13:02:00,88.6,22.6,29.80,South,181,14.8,24.5,9,0.00,,---,0.00,VWS V12.07,2013-05-22 20:02:00,
2013-05-22 13:07:00,88.3,21.9,29.80,SSW,194,11.6,24.5,9,0.00,,---,0.00,VWS V12.07,2013-05-22 20:07:00,
2013-05-22 13:12:00,88.0,22.4,29.80,SW,215,7.7,24.5,9,0.00,,---,0.00,VWS V12.07,2013-05-22 20:12:00,
2013-05-22 13:17:00,87.8,22.5,29.80,SSW,211,4.6,24.5,9,0.00,,---,0.00,VWS V12.07,2013-05-22 20:17:00,
2013-05-22 13:22:00,88.2,22.3,29.80,SSW,205,10.9,24.5,9,0.00,,---,0.00,VWS V12.07,2013-05-22 20:22:00,
2013-05-22 13:27:00,88.2,22.3,29.80,SSW,205,3.5,24.5,9,0.00,,---,0.00,VWS V12.07,2013-05-22 20:27:00,
2013-05-22 13:30:00,88.4,22.7,29.80,SSE,167,7.7,22.9,9,0.00,,---,0.00,VWS V12.07,2013-05-22 20:30:00,
2013-05-22 13:32:00,88.8,22.0,29.79,WSW,248,9.3,24.5,9,0.00,,---,0.00,VWS V12.07,2013-05-22 20:32:00,
2013-05-22 13:37:00,88.9,21.5,29.80,SSE,158,7.7,24.5,8,0.00,,---,0.00,VWS V12.07,2013-05-22 20:37:00,
2013-05-22 13:42:00,89.1,21.1,29.79,SSW,200,8.7,24.5,8,0.00,,---,0.00,VWS V12.07,2013-05-22 20:42:00,
2013-05-22 13:47:00,88.9,20.9,29.79,SE,145,4.5,24.5,8,0.00,,---,0.00,VWS V12.07,2013-05-22 20:47:00,
2013-05-22 13:52:00,89.0,21.0,29.78,South,186,5.2,23.1,8,0.00,,---,0.00,VWS V12.07,2013-05-22 20:52:00,
2013-05-22 13:57:00,89.2,20.6,29.78,South,190,14.5,23.1,8,0.00,,---,0.00,VWS V12.07,2013-05-22 20:57:00,
2013-05-22 14:00:00,89.3,20.6,29.78,South,174,7.8,23.1,8,0.00,,---,0.00,VWS V12.07,2013-05-22 21:00:00,
2013-05-22 14:02:00,89.4,21.0,29.78,SSW,195,10.9,23.1,8,0.00,,---,0.00,VWS V12.07,2013-05-22 21:02:00,
2013-05-22 14:07:00,89.2,21.1,29.78,SE,139,6.2,23.1,8,0.00,,---,0.00,VWS V12.07,2013-05-22 21:07:00,
2013-05-22 14:12:00,89.0,21.6,29.78,SW,215,8.5,24.8,8,0.00,,---,0.00,VWS V12.07,2013-05-22 21:12:00,
2013-05-22 14:17:00,89.0,21.0,29.78,SSW,193,4.5,24.8,8,0.00,,---,0.00,VWS V12.07,2013-05-22 21:17:00,
2013-05-22 14:22:00,88.9,20.9,29.78,SSW,210,14.5,24.8,8,0.00,,---,0.00,VWS V12.07,2013-05-22 21:22:00,
2013-05-22 14:27:00,88.6,21.0,29.78,SW,218,4.2,24.8,8,0.00,,---,0.00,VWS V12.07,2013-05-22 21:27:00,
2013-05-22 14:30:00,88.7,21.1,29.78,SW,228,6.5,24.8,8,0.00,,---,0.00,VWS V12.07,2013-05-22 21:30:00,
2013-05-22 14:32:00,88.8,20.6,29.78,South,187,7.4,25.2,8,0.00,,---,0.00,VWS V12.07,2013-05-22 21:32:00,
2013-05-22 14:37:00,88.6,21.0,29.77,SSW,200,4.5,25.2,8,0.00,,---,0.00,VWS V12.07,2013-05-22 21:37:00,
2013-05-22 14:42:00,88.8,20.6,29.77,South,181,11.6,25.2,8,0.00,,---,0.00,VWS V12.07,2013-05-22 21:42:00,
2013-05-22 14:47:00,88.7,20.8,29.76,SSW,204,6.4,25.2,8,0.00,,---,0.00,VWS V12.07,2013-05-22 21:47:00,
2013-05-22 14:52:00,88.6,20.4,29.76,SE,125,12.7,27.7,8,0.00,,---,0.00,VWS V12.07,2013-05-22 21:52:00,
2013-05-22 14:57:00,88.9,20.6,29.76,SSE,163,8.6,27.7,8,0.00,,---,0.00,VWS V12.07,2013-05-22 21:57:00,
2013-05-22 15:00:00,88.9,20.9,29.76,SSW,197,14.4,27.7,8,0.00,,---,0.00,VWS V12.07,2013-05-22 22:00:00,
2013-05-22 15:02:00,88.9,21.2,29.76,South,172,8.9,27.7,8,0.00,,---,0.00,VWS V12.07,2013-05-22 22:02:00,
2013-05-22 15:07:00,89.0,20.7,29.76,SSE,153,0.0,27.7,8,0.00,,---,0.00,VWS V12.07,2013-05-22 22:07:00,
2013-05-22 15:12:00,88.9,21.5,29.76,SSE,158,3.0,27.7,8,0.00,,---,0.00,VWS V12.07,2013-05-22 22:12:00,
2013-05-22 15:17:00,89.0,21.6,29.76,SSW,208,9.3,27.7,8,0.00,,---,0.00,VWS V12.07,2013-05-22 22:17:00,
2013-05-22 15:22:00,88.9,22.0,29.75,South,186,13.7,27.7,9,0.00,,---,0.00,VWS V12.07,2013-05-22 22:22:00,
2013-05-22 15:27:00,88.7,21.9,29.76,SSE,166,6.1,27.7,9,0.00,,---,0.00,VWS V12.07,2013-05-22 22:27:00,
2013-05-22 15:30:00,88.9,22.3,29.76,SSW,198,4.8,23.7,9,0.00,,---,0.00,VWS V12.07,2013-05-22 22:30:00,
2013-05-22 15:32:00,88.8,22.0,29.76,South,172,7.1,27.7,9,0.00,,---,0.00,VWS V12.07,2013-05-22 22:32:00,
2013-05-22 15:37:00,88.8,21.7,29.76,SSW,210,7.0,27.7,9,0.00,,---,0.00,VWS V12.07,2013-05-22 22:37:00,
2013-05-22 15:42:00,88.6,22.1,29.75,South,187,4.9,27.7,9,0.00,,---,0.00,VWS V12.07,2013-05-22 22:42:00,
2013-05-22 15:47:00,88.9,21.5,29.75,SSW,211,9.5,27.7,8,0.00,,---,0.00,VWS V12.07,2013-05-22 22:47:00,
2013-05-22 15:52:00,88.9,21.5,29.75,South,181,9.6,20.3,8,0.00,,---,0.00,VWS V12.07,2013-05-22 22:52:00,
2013-05-22 15:57:00,88.9,20.6,29.75,SSW,205,7.6,20.3,8,0.00,,---,0.00,VWS V12.07,2013-05-22 22:57:00,
2013-05-22 16:00:00,89.0,20.7,29.75,SSW,202,6.0,20.3,8,0.00,,---,0.00,VWS V12.07,2013-05-22 23:00:00,
2013-05-22 16:02:00,89.0,21.0,29.75,SW,217,4.3,20.3,8,0.00,,---,0.00,VWS V12.07,2013-05-22 23:02:00,
2013-05-22 16:07:00,88.6,20.7,29.75,East,84,3.5,29.6,8,0.00,,---,0.00,VWS V12.07,2013-05-22 23:07:00,
2013-05-22 16:12:00,88.2,21.8,29.75,SW,214,9.0,29.6,9,0.00,,---,0.00,VWS V12.07,2013-05-22 23:12:00,
2013-05-22 16:17:00,88.5,21.2,29.74,South,184,6.0,29.6,8,0.00,,---,0.00,VWS V12.07,2013-05-22 23:17:00,
2013-05-22 16:22:00,88.6,21.3,29.74,South,181,8.5,29.6,8,0.00,,---,0.00,VWS V12.07,2013-05-22 23:22:00,
2013-05-22 16:27:00,88.6,21.3,29.74,SSW,200,4.7,29.6,8,0.00,,---,0.00,VWS V12.07,2013-05-22 23:27:00,
2013-05-22 16:30:00,88.6,21.3,29.74,SSE,163,15.2,29.6,8,0.00,,---,0.00,VWS V12.07,2013-05-22 23:30:00,
2013-05-22 16:32:00,88.8,21.1,29.74,SSW,211,8.5,29.6,8,0.00,,---,0.00,VWS V12.07,2013-05-22 23:32:00,
2013-05-22 16:37:00,88.9,21.2,29.74,SSW,198,6.6,29.6,8,0.00,,---,0.00,VWS V12.07,2013-05-22 23:37:00,
2013-05-22 16:42:00,88.7,21.3,29.74,South,184,2.9,29.6,8,0.00,,---,0.00,VWS V12.07,2013-05-22 23:42:00,
2013-05-22 16:47:00,88.6,21.3,29.74,South,172,2.9,29.6,8,0.00,,---,0.00,VWS V12.07,2013-05-22 23:47:00,
2013-05-22 16:52:00,88.5,20.6,29.74,WSW,249,5.8,19.1,8,0.00,,---,0.00,VWS V12.07,2013-05-22 23:52:00,
2013-05-22 16:57:00,88.7,21.1,29.74,South,172,5.0,19.1,8,0.00,,---,0.00,VWS V12.07,2013-05-22 23:57:00,
2013-05-22 17:00:00,88.5,20.9,29.74,SSW,204,5.8,19.1,8,0.00,,---,0.00,VWS V12.07,2013-05-23 00:00:00,
2013-05-22 17:02:00,88.5,22.0,29.74,South,169,2.6,19.1,9,0.00,,---,0.00,VWS V12.07,2013-05-23 00:02:00,
2013-05-22 17:07:00,88.4,21.9,29.74,SSW,198,6.0,19.1,9,0.00,,---,0.00,VWS V12.07,2013-05-23 00:07:00,
2013-05-22 17:12:00,88.2,22.3,29.74,SE,141,1.2,19.1,9,0.00,,---,0.00,VWS V12.07,2013-05-23 00:12:00,
2013-05-22 17:17:00,87.9,22.1,29.74,SSW,205,10.9,19.1,9,0.00,,---,0.00,VWS V12.07,2013-05-23 00:17:00,
2013-05-22 17:22:00,87.9,22.6,29.73,SSW,211,6.4,19.1,9,0.00,,---,0.00,VWS V12.07,2013-05-23 00:22:00,
2013-05-22 17:27:00,87.8,22.3,29.74,SSW,193,8.8,19.1,9,0.00,,---,0.00,VWS V12.07,2013-05-23 00:27:00,
2013-05-22 17:30:00,87.9,22.4,29.74,SSE,167,7.1,18.1,9,0.00,,---,0.00,VWS V12.07,2013-05-23 00:30:00,
2013-05-22 17:32:00,87.5,22.6,29.74,SE,136,3.4,19.1,9,0.00,,---,0.00,VWS V12.07,2013-05-23 00:32:00,
2013-05-22 17:38:00,87.4,22.7,29.74,South,177,4.7,19.1,9,0.00,,---,0.00,VWS V12.07,2013-05-23 00:38:00,
2013-05-22 17:43:00,87.4,22.7,29.73,South,184,7.5,19.1,9,0.00,,---,0.00,VWS V12.07,2013-05-23 00:43:00,
2013-05-22 17:48:00,87.5,22.8,29.74,SSW,198,6.0,19.1,9,0.00,,---,0.00,VWS V12.07,2013-05-23 00:48:00,
2013-05-22 17:53:00,87.5,22.8,29.74,SSW,200,10.4,17.5,9,0.00,,---,0.00,VWS V12.07,2013-05-23 00:53:00,
2013-05-22 17:58:00,86.9,22.9,29.74,South,190,5.2,17.5,10,0.00,,---,0.00,VWS V12.07,2013-05-23 00:58:00,
2013-05-22 18:00:00,86.9,22.9,29.74,South,181,7.3,17.5,10,0.00,,---,0.00,VWS V12.07,2013-05-23 01:00:00,
2013-05-22 18:03:00,86.6,22.9,29.74,South,173,5.8,19.1,10,0.00,,---,0.00,VWS V12.07,2013-05-23 01:03:00,
2013-05-22 18:08:00,86.4,23.2,29.74,SW,219,5.3,19.1,10,0.00,,---,0.00,VWS V12.07,2013-05-23 01:08:00,
2013-05-22 18:13:00,86.2,23.3,29.74,South,177,5.9,19.1,10,0.00,,---,0.00,VWS V12.07,2013-05-23 01:13:00,
2013-05-22 18:18:00,86.2,23.5,29.74,South,186,14.7,19.1,10,0.00,,---,0.00,VWS V12.07,2013-05-23 01:18:00,
2013-05-22 18:23:00,86.0,23.2,29.74,SSW,194,15.3,21.2,10,0.00,,---,0.00,VWS V12.07,2013-05-23 01:23:00,
2013-05-22 18:28:00,85.9,23.5,29.74,SSW,208,9.4,21.2,10,0.00,,---,0.00,VWS V12.07,2013-05-23 01:28:00,
2013-05-22 18:30:00,85.8,23.5,29.74,SSW,195,6.8,21.2,10,0.00,,---,0.00,VWS V12.07,2013-05-23 01:30:00,
2013-05-22 18:33:00,85.5,23.7,29.74,SSW,195,9.6,21.2,10,0.00,,---,0.00,VWS V12.07,2013-05-23 01:33:00,
2013-05-22 18:38:00,85.4,23.4,29.74,South,181,10.7,21.2,10,0.00,,---,0.00,VWS V12.07,2013-05-23 01:38:00,
2013-05-22 18:43:00,85.3,23.8,29.74,South,186,0.0,21.2,10,0.00,,---,0.00,VWS V12.07,2013-05-23 01:43:00,
2013-05-22 18:48:00,85.1,23.6,29.75,SSW,212,4.5,21.2,10,0.00,,---,0.00,VWS V12.07,2013-05-23 01:48:00,
2013-05-22 18:53:00,84.8,23.9,29.75,SE,134,4.3,18.8,11,0.00,,---,0.00,VWS V12.07,2013-05-23 01:53:00,
2013-05-22 18:58:00,84.4,24.2,29.75,SSW,211,7.5,18.8,11,0.00,,---,0.00,VWS V12.07,2013-05-23 01:58:00,
2013-05-22 19:00:00,84.4,24.2,29.75,SSW,207,7.0,18.8,11,0.00,,---,0.00,VWS V12.07,2013-05-23 02:00:00,
2013-05-22 19:03:00,84.4,24.6,29.75,South,173,2.9,18.8,11,0.00,,---,0.00,VWS V12.07,2013-05-23 02:03:00,
2013-05-22 19:08:00,83.9,24.7,29.75,South,188,3.2,18.8,11,0.00,,---,0.00,VWS V12.07,2013-05-23 02:08:00,
2013-05-22 19:13:00,83.4,24.7,29.75,SSW,210,4.6,18.8,12,0.00,,---,0.00,VWS V12.07,2013-05-23 02:13:00,
2013-05-22 19:18:00,83.4,25.1,29.75,West,259,3.0,18.8,12,0.00,,---,0.00,VWS V12.07,2013-05-23 02:18:00,
2013-05-22 19:23:00,83.0,25.0,29.75,SSE,148,0.0,18.8,12,0.00,,---,0.00,VWS V12.07,2013-05-23 02:23:00,
2013-05-22 19:28:00,82.7,25.0,29.75,SSW,194,0.0,18.8,12,0.00,,---,0.00,VWS V12.07,2013-05-23 02:28:00,
2013-05-22 19:30:00,82.7,25.0,29.75,South,170,3.3,12.6,12,0.00,,---,0.00,VWS V12.07,2013-05-23 02:30:00,
2013-05-22 19:33:00,82.5,25.0,29.75,SSW,210,0.0,18.8,12,0.00,,---,0.00,VWS V12.07,2013-05-23 02:33:00,
2013-05-22 19:38:00,82.4,25.1,29.75,SSE,167,7.4,18.8,12,0.00,,---,0.00,VWS V12.07,2013-05-23 02:38:00,
2013-05-22 19:43:00,82.5,25.2,29.75,SSE,165,8.3,18.8,12,0.00,,---,0.00,VWS V12.07,2013-05-23 02:43:00,
2013-05-22 19:48:00,82.0,25.0,29.75,South,179,4.5,18.8,12,0.00,,---,0.00,VWS V12.07,2013-05-23 02:48:00,
2013-05-22 19:53:00,81.4,25.1,29.75,South,183,4.2,13.5,13,0.00,,---,0.00,VWS V12.07,2013-05-23 02:53:00,
2013-05-22 19:58:00,81.1,25.1,29.75,South,173,0.0,13.5,13,0.00,,---,0.00,VWS V12.07,2013-05-23 02:58:00,
2013-05-22 20:00:00,81.2,25.2,29.75,South,173,0.0,13.5,13,0.00,,---,0.00,VWS V12.07,2013-05-23 03:00:00,
2013-05-22 20:03:00,80.9,24.9,29.75,South,187,2.6,13.5,13,0.00,,---,0.00,VWS V12.07,2013-05-23 03:03:00,
2013-05-22 20:08:00,80.5,25.0,29.75,South,187,0.0,13.5,13,0.00,,---,0.00,VWS V12.07,2013-05-23 03:08:00,
2013-05-22 20:13:00,80.3,24.1,29.75,South,190,7.1,13.5,12,0.00,,---,0.00,VWS V12.07,2013-05-23 03:13:00,
2013-05-22 20:18:00,81.1,23.9,29.75,SSW,193,0.0,13.5,12,0.00,,---,0.00,VWS V12.07,2013-05-23 03:18:00,
2013-05-22 20:23:00,81.4,24.0,29.75,SSE,149,3.2,14.5,12,0.00,,---,0.00,VWS V12.07,2013-05-23 03:23:00,
2013-05-22 20:28:00,81.3,24.1,29.75,SSW,195,6.1,14.5,12,0.00,,---,0.00,VWS V12.07,2013-05-23 03:28:00,
2013-05-22 20:30:00,81.3,24.1,29.75,SW,232,6.3,14.5,12,0.00,,---,0.00,VWS V12.07,2013-05-23 03:30:00,
2013-05-22 20:33:00,81.3,24.3,29.75,SSW,193,0.0,14.5,12,0.00,,---,0.00,VWS V12.07,2013-05-23 03:33:00,
2013-05-22 20:38:00,81.0,24.2,29.75,SW,232,0.0,14.5,12,0.00,,---,0.00,VWS V12.07,2013-05-23 03:38:00,
2013-05-22 20:43:00,80.7,24.4,29.75,SSW,193,0.0,14.5,12,0.00,,---,0.00,VWS V12.07,2013-05-23 03:43:00,
2013-05-22 20:48:00,80.5,24.6,29.75,SSW,193,0.0,14.5,13,0.00,,---,0.00,VWS V12.07,2013-05-23 03:48:00,
2013-05-22 20:53:00,80.0,25.0,29.75,South,181,0.0,14.5,13,0.00,,---,0.00,VWS V12.07,2013-05-23 03:53:00,
2013-05-22 20:58:00,79.7,24.9,29.75,South,181,0.0,14.5,13,0.00,,---,0.00,VWS V12.07,2013-05-23 03:58:00,
2013-05-22 21:00:00,79.7,24.9,29.75,South,181,0.0,10.4,13,0.00,,---,0.00,VWS V12.07,2013-05-23 04:00:00,
2013-05-22 21:01:00,79.4,25.0,29.76,South,181,0.0,14.5,13,0.00,,---,0.00,VWS V12.07,2013-05-23 04:01:00,
2013-05-22 21:06:00,79.2,25.6,29.76,SSE,152,0.0,14.5,14,0.00,,---,0.00,VWS V12.07,2013-05-23 04:06:00,
2013-05-22 21:11:00,78.8,25.5,29.76,SW,219,0.0,14.5,14,0.00,,---,0.00,VWS V12.07,2013-05-23 04:11:00,
2013-05-22 21:16:00,78.7,25.5,29.76,South,186,0.0,14.5,14,0.00,,---,0.00,VWS V12.07,2013-05-23 04:16:00,
2013-05-22 21:21:00,78.5,25.9,29.76,South,186,0.0,14.5,14,0.00,,---,0.00,VWS V12.07,2013-05-23 04:21:00,
2013-05-22 21:26:00,78.0,26.0,29.76,South,184,0.0,14.5,15,0.00,,---,0.00,VWS V12.07,2013-05-23 04:26:00,
2013-05-22 21:30:00,77.9,26.1,29.76,South,174,0.0,5.0,15,0.00,,---,0.00,VWS V12.07,2013-05-23 04:30:00,
2013-05-22 21:31:00,77.7,26.1,29.76,South,174,0.0,14.5,15,0.00,,---,0.00,VWS V12.07,2013-05-23 04:31:00,
2013-05-22 21:36:00,77.2,26.0,29.76,South,174,0.0,14.5,15,0.00,,---,0.00,VWS V12.07,2013-05-23 04:36:00,
2013-05-22 21:41:00,77.2,25.9,29.76,South,173,3.5,14.5,15,0.00,,---,0.00,VWS V12.07,2013-05-23 04:41:00,
2013-05-22 21:46:00,77.5,25.6,29.76,SSW,208,0.0,14.5,15,0.00,,---,0.00,VWS V12.07,2013-05-23 04:46:00,
2013-05-22 21:51:00,77.5,25.4,29.76,South,184,5.2,14.5,14,0.00,,---,0.00,VWS V12.07,2013-05-23 04:51:00,
2013-05-22 21:56:00,77.7,25.1,29.76,SSE,155,0.0,14.5,14,0.00,,---,0.00,VWS V12.07,2013-05-23 04:56:00,
2013-05-22 22:00:00,77.7,25.1,29.76,South,179,0.0,8.9,14,0.00,,---,0.00,VWS V12.07,2013-05-23 05:00:00,
2013-05-22 22:01:00,77.9,25.1,29.77,South,184,6.1,14.5,14,0.00,,---,0.00,VWS V12.07,2013-05-23 05:01:00,
2013-05-22 22:06:00,77.7,24.9,29.77,SSE,163,0.0,14.5,14,0.00,,---,0.00,VWS V12.07,2013-05-23 05:06:00,
2013-05-22 22:11:00,77.7,24.8,29.77,South,177,6.5,14.5,14,0.00,,---,0.00,VWS V12.07,2013-05-23 05:11:00,
2013-05-22 22:16:00,77.4,24.5,29.76,South,180,3.1,14.5,14,0.00,,---,0.00,VWS V12.07,2013-05-23 05:16:00,
2013-05-22 22:21:00,77.4,24.5,29.76,South,173,3.4,14.5,14,0.00,,---,0.00,VWS V12.07,2013-05-23 05:21:00,
2013-05-22 22:26:00,77.3,24.4,29.77,SSW,204,0.0,14.5,14,0.00,,---,0.00,VWS V12.07,2013-05-23 05:26:00,
2013-05-22 22:30:00,77.1,24.3,29.76,South,172,0.0,8.1,14,0.00,,---,0.00,VWS V12.07,2013-05-23 05:30:00,
2013-05-22 22:31:00,76.9,24.1,29.77,South,174,0.0,14.5,14,0.00,,---,0.00,VWS V12.07,2013-05-23 05:31:00,
2013-05-22 22:36:00,76.5,24.1,29.77,SSE,160,3.0,14.5,14,0.00,,---,0.00,VWS V12.07,2013-05-23 05:36:00,
2013-05-22 22:41:00,75.9,24.3,29.77,South,173,2.6,14.5,15,0.00,,---,0.00,VWS V12.07,2013-05-23 05:41:00,
2013-05-22 22:46:00,75.5,24.7,29.77,SSW,204,3.3,14.5,15,0.00,,---,0.00,VWS V12.07,2013-05-23 05:46:00,
2013-05-22 22:51:00,74.9,24.8,29.77,SSE,163,0.0,14.5,15,0.00,,---,0.00,VWS V12.07,2013-05-23 05:51:00,
2013-05-22 22:56:00,74.2,24.9,29.78,SSE,165,0.0,14.5,16,0.00,,---,0.00,VWS V12.07,2013-05-23 05:56:00,
2013-05-22 23:00:00,74.0,24.9,29.78,SSE,149,0.0,6.9,16,0.00,,---,0.00,VWS V12.07,2013-05-23 06:00:00,
2013-05-22 23:01:00,73.5,24.8,29.78,SSE,156,3.0,14.5,16,0.00,,---,0.00,VWS V12.07,2013-05-23 06:01:00,
2013-05-22 23:06:00,73.0,24.6,29.78,South,190,5.5,14.5,16,0.00,,---,0.00,VWS V12.07,2013-05-23 06:06:00,
2013-05-22 23:11:00,72.6,24.3,29.78,SSE,156,0.0,14.5,16,0.00,,---,0.00,VWS V12.07,2013-05-23 06:11:00,
2013-05-22 23:16:00,72.5,24.2,29.78,SSW,194,0.0,14.5,16,0.00,,---,0.00,VWS V12.07,2013-05-23 06:16:00,
2013-05-22 23:21:00,72.5,24.2,29.78,SSE,166,0.0,14.5,16,0.00,,---,0.00,VWS V12.07,2013-05-23 06:21:00,
2013-05-22 23:26:00,72.5,24.1,29.78,SSE,155,0.0,14.5,16,0.00,,---,0.00,VWS V12.07,2013-05-23 06:26:00,
2013-05-22 23:30:00,72.5,24.1,29.79,South,172,2.5,9.4,16,0.00,,---,0.00,VWS V12.07,2013-05-23 06:30:00,
2013-05-22 23:31:00,72.6,24.2,29.79,South,190,0.0,14.5,16,0.00,,---,0.00,VWS V12.07,2013-05-23 06:31:00,
2013-05-22 23:36:00,72.9,24.3,29.79,WSW,255,0.0,14.5,16,0.00,,---,0.00,VWS V12.07,2013-05-23 06:36:00,
2013-05-22 23:41:00,73.0,24.4,29.79,South,169,0.0,14.5,16,0.00,,---,0.00,VWS V12.07,2013-05-23 06:41:00,
2013-05-22 23:46:00,72.8,24.6,29.79,South,169,0.0,14.5,16,0.00,,---,0.00,VWS V12.07,2013-05-23 06:46:00,
2013-05-22 23:51:00,72.6,24.9,29.79,South,169,0.0,14.5,17,0.00,,---,0.00,VWS V12.07,2013-05-23 06:51:00,
2013-05-22 23:56:00,71.9,24.9,29.79,South,169,0.0,14.5,17,0.00,,---,0.00,VWS V12.07,2013-05-23 06:56:00,